Volver al catálogo

STARLINK-31939

ActivoComunicacionesVLEO
NORAD 60026·PAYLOAD·🇺🇸 United States

Lanzado Jun 8, 2024 desde Cape Canaveral Space Force Station

Loading…

Próximos Pases (próximas 24 horas)

TLE

ActualizadoSource: CelesTrak SupGP

Época: Sep 14, 2026, 21:14 UTC

1 60026C 24111L   26257.88520833  .00044807  00000+0  13241-2 0  2574
2 60026  53.1569 275.8142 0001199  85.0513 306.8975 15.34361395    15

Sigue STARLINK-31939 en tiempo real con AllMySat

Download on the App Store